Flag for U.S.A. Weather past 2 weeks in Sandpoint, Idaho, U.S.A.

Now
52 °F

Scattered clouds.


Feels Like: 49 °F
Forecast: 37 / 51 °F
Wind: 7 mph from Southwest

Location: Sandpoint Airport

Current Time: Mar 31, 2015 at 9:55:48 AM

Latest Report: Mar 31, 2015 at 9:15 AM


Visibility: 10 mi

Pressure: 29.79 "Hg

Humidity: 54%

Dew point: 36 °F

Location of SandpointLocation

Historic Weather in Sandpoint — Graph

°F

Sandpoint temperature yesterday

Maximum temperature yesterday: 66 °F (at 4:55 PM)
Minimum temperature yesterday: 34 °F (at 6:35 AM)
Average temperature yesterday: 48 °F

Past Weeks' High & Low Weather Summary

 TemperatureHumidityPressure
High66 °F (Mar 30, 4:55 PM)100% (Mar 16, 8:15 AM)30.32 "Hg (Mar 16, 8:15 AM)
Low30 °F (Mar 22, 4:35 AM)30% (Mar 30, 4:55 PM)29.78 "Hg (Mar 31, 5:35 AM)
Average44 °F83%30.08 "Hg
* Reported Mar 16 8:15 AM — Mar 31 8:35 AM, Sandpoint, Weather by CustomWeather, © 2015

Note: Actual official high and low records may vary slightly from our data, if they occured in-between our weather recording intervals... More about our weather records

Advertising

Sandpoint weather history for previous 24 hours

 ConditionsComfort  
Time TempWeatherWind HumidityBarometerVisibility
8:35 AM
Tue, Mar 31
46 °FScattered clouds.6 mph82%29.79 "Hg10 mi
8:15 AM41 °FPartly sunny.7 mph93%29.80 "Hg10 mi
7:55 AM41 °FOvercast.5 mph93%29.80 "Hg10 mi
7:35 AM39 °FOvercast.No wind93%29.80 "Hg10 mi
7:15 AM37 °FPassing clouds.3 mph100%29.79 "Hg10 mi
6:55 AM37 °FClear.3 mph100%29.79 "Hg10 mi
6:35 AM37 °FPassing clouds.No wind100%29.80 "Hg10 mi
6:15 AM37 °FPassing clouds.5 mph100%29.78 "Hg10 mi
5:55 AM36 °FPassing clouds.No wind100%29.78 "Hg10 mi
5:35 AM36 °FPassing clouds.No wind100%29.78 "Hg10 mi
5:15 AM36 °FClear.No wind100%29.79 "Hg10 mi
4:55 AM36 °FClear.No wind100%29.79 "Hg10 mi
4:35 AM36 °FClear.No wind100%29.79 "Hg10 mi
4:15 AM36 °FClear.No wind100%29.79 "Hg10 mi
3:55 AM36 °FClear.No wind100%29.79 "Hg10 mi
3:15 AM36 °FClear.No wind100%29.80 "Hg10 mi
2:55 AM36 °FClear.No wind100%29.81 "Hg10 mi
2:15 AM36 °FClear.No wind100%29.81 "Hg10 mi
1:55 AM36 °FClear.No wind100%29.82 "Hg10 mi
1:15 AM37 °FClear.No wind100%29.83 "Hg10 mi
12:55 AM37 °FClear.No wind100%29.83 "Hg10 mi
12:15 AM39 °FClear.No wind100%29.84 "Hg10 mi
11:55 PM
Mon, Mar 30
39 °FClear.No wind100%29.85 "Hg10 mi
11:35 PM41 °FClear.No wind100%29.85 "Hg10 mi
11:15 PM41 °FClear.No wind100%29.85 "Hg10 mi
10:55 PM43 °FClear.No wind93%29.85 "Hg10 mi
10:35 PM43 °FClear.No wind93%29.86 "Hg10 mi
10:15 PM43 °FClear.No wind93%29.87 "Hg10 mi
9:55 PM45 °FClear.No wind93%29.88 "Hg10 mi
9:35 PM45 °FClear.No wind87%29.88 "Hg10 mi
9:15 PM46 °FClear.No wind82%29.88 "Hg10 mi
8:55 PM46 °FClear.No wind82%29.89 "Hg10 mi
8:15 PM50 °FClear.3 mph76%29.88 "Hg10 mi
7:55 PM54 °FSunny.No wind67%29.88 "Hg10 mi
7:35 PM52 °FSunny.5 mph77%29.89 "Hg10 mi
7:15 PM57 °FSunny.No wind51%29.89 "Hg10 mi
6:55 PM61 °FSunny.No wind42%29.90 "Hg10 mi
6:35 PM63 °FSunny.3 mph39%29.90 "Hg10 mi
6:15 PM63 °FSunny.3 mph39%29.91 "Hg10 mi
5:55 PM63 °FSunny.3 mph37%29.91 "Hg10 mi
5:35 PM64 °FSunny.3 mph32%29.92 "Hg10 mi
5:15 PM64 °FSunny.7 mph32%29.92 "Hg10 mi
4:55 PM66 °FSunny.7 mph30%29.93 "Hg10 mi
4:15 PM64 °FSunny.6 mph32%29.95 "Hg10 mi
3:55 PM64 °FSunny.No wind34%29.96 "Hg10 mi
3:35 PM61 °FSunny.6 mph42%29.97 "Hg10 mi
3:15 PM63 °FSunny.5 mph39%29.98 "Hg10 mi
2:35 PM61 °FSunny.8 mph42%30.00 "Hg10 mi
2:15 PM61 °FScattered clouds.6 mph42%30.01 "Hg10 mi
1:55 PM61 °FScattered clouds.7 mph39%30.03 "Hg10 mi
1:35 PM61 °FSunny.8 mph42%30.03 "Hg10 mi
1:15 PM61 °FSunny.7 mph42%30.04 "Hg10 mi
12:55 PM59 °FSunny.5 mph45%30.05 "Hg10 mi
12:35 PM57 °FSunny.No wind51%30.06 "Hg10 mi
12:15 PM55 °FSunny.5 mph55%30.07 "Hg10 mi
11:55 AM55 °FSunny.6 mph59%30.08 "Hg10 mi
11:35 AM55 °FSunny.3 mph59%30.09 "Hg10 mi
11:15 AM54 °FSunny.No wind58%30.10 "Hg10 mi
10:55 AM52 °FSunny.No wind67%30.10 "Hg10 mi
10:35 AM52 °FSunny.No wind67%30.11 "Hg10 mi
10:15 AM50 °FSunny.No wind71%30.11 "Hg10 mi
9:55 AM48 °FSunny.No wind76%30.12 "Hg10 mi
9:35 AM48 °FSunny.No wind76%30.12 "Hg10 mi
9:15 AM46 °FSunny.No wind76%30.12 "Hg10 mi
Weather by CustomWeather, © 2015

See weather overviewHow to use our weather pages